GFSCGP_500_temp_207.txt.gz
Temp
-9 -9 -9 -9 -9 -10 -10 -10 -10 -10 -10 -10 -11 -11 -11 -11 -11 -11 -11 -11 -11 -12 -11 -11 -11 -11 -11 -11 -11 -12 -12 -12 -12 -12 -11 -11 -11 -11 -11 -11 -11 -10 -10 -10
-10 -9 -10 -10 -10 -10 -10 -10 -10 -10 -11 -11 -11 -11 -11 -12 -11 -12 -12 -12 -12 -12 -12 -12 -12 -12 -12 -12 -12 -12 -12 -12 -12 -12 -12 -12 -12 -12 -12 -12 -11 -11 -11 -11
-10 -10 -10 -10 -10 -10 -11 -10 -11 -11 -11 -11 -12 -11 -12 -12 -11 -12 -12 -13 -13 -13 -13 -13 -13 -13 -13 -13 -12 -12 -13 -13 -13 -13 -13 -13 -13 -13 -12 -12 -12 -12 -12 -12
-10 -10 -10 -10 -11 -10 -11 -10 -11 -11 -11 -11 -12 -11 -13 -15 -14 -13 -12 -13 -13 -13 -13 -13 -13 -13 -13 -13 -13 -13 -13 -13 -13 -13 -13 -13 -13 -13 -13 -13 -13 -12 -11 -13
-10 -10 -10 -11 -11 -11 -11 -11 -11 -11 -11 -11 -12 -14 -14 -15 -16 -16 -17 -17 -13 -13 -13 -13 -13 -14 -14 -14 -14 -14 -14 -14 -14 -14 -14 -14 -13 -13 -13 -13 -14 -12 -13 -13
-11 -11 -11 -11 -11 -10 -11 -11 -11 -12 -14 -15 -14 -15 -15 -16 -16 -17 -17 -17 -16 -15 -14 -14 -14 -14 -14 -14 -14 -14 -14 -14 -15 -14 -14 -14 -14 -14 -13 -14 -14 -14 -14 -14
-10 -10 -10 -11 -11 -11 -12 -12 -12 -12 -14 -14 -15 -15 -15 -16 -16 -16 -17 -17 -17 -17 -16 -16 -16 -16 -15 -15 -14 -15 -15 -15 -15 -15 -15 -15 -14 -14 -15 -15 -15 -16 -16 -17
-10 -11 -10 -11 -12 -12 -12 -13 -13 -13 -14 -13 -14 -16 -16 -16 -17 -16 -17 -18 -18 -19 -18 -18 -18 -18 -17 -17 -17 -17 -17 -16 -16 -16 -16 -16 -15 -15 -16 -15 -15 -16 -15 -15
-11 -11 -11 -12 -12 -13 -13 -14 -14 -14 -14 -13 -15 -16 -17 -17 -17 -17 -18 -18 -19 -19 -19 -19 -19 -18 -18 -18 -18 -17 -17 -17 -17 -17 -17 -16 -15 -15 -16 -16 -16 -15 -15 -15
-11 -11 -12 -12 -13 -13 -12 -13 -14 -14 -14 -14 -15 -16 -17 -17 -17 -18 -19 -19 -19 -19 -20 -19 -20 -20 -19 -19 -18 -16 -18 -18 -17 -17 -18 -17 -17 -16 -16 -16 -15 -15 -15 -15
-12 -12 -12 -13 -13 -13 -15 -15 -15 -15 -17 -18 -18 -16 -18 -18 -19 -19 -19 -20 -20 -18 -20 -20 -20 -20 -20 -19 -19 -18 -18 -18 -18 -18 -18 -17 -16 -16 -15 -16 -16 -15 -15 -15
-12 -13 -13 -13 -13 -13 -14 -14 -15 -15 -16 -17 -17 -16 -20 -20 -20 -20 -19 -20 -20 -18 -19 -20 -20 -20 -20 -20 -19 -19 -18 -18 -18 -18 -18 -17 -17 -16 -16 -16 -16 -16 -15 -15
-13 -13 -13 -14 -14 -13 -14 -15 -16 -16 -16 -18 -18 -17 -20 -20 -20 -20 -20 -20 -20 -19 -19 -19 -19 -19 -20 -20 -19 -19 -19 -19 -19 -19 -19 -18 -17 -16 -16 -16 -15 -15 -15 -15
-13 -14 -14 -14 -15 -15 -15 -16 -16 -17 -17 -17 -20 -19 -21 -20 -19 -19 -20 -20 -20 -20 -20 -20 -20 -20 -20 -19 -19 -19 -19 -20 -20 -20 -19 -18 -17 -17 -16 -16 -16 -16 -15 -16
-14 -14 -14 -15 -15 -15 -15 -16 -16 -17 -18 -19 -18 -21 -21 -19 -19 -20 -19 -19 -19 -20 -20 -20 -20 -19 -19 -19 -19 -19 -19 -19 -20 -20 -19 -19 -18 -17 -16 -16 -16 -16 -16 -16
-13 -14 -14 -15 -15 -15 -16 -16 -16 -17 -18 -18 -19 -19 -19 -19 -19 -20 -20 -20 -20 -20 -19 -19 -19 -20 -19 -19 -19 -18 -19 -19 -19 -20 -19 -18 -17 -16 -16 -16 -16 -16 -16 -16
-14 -15 -15 -15 -15 -16 -16 -16 -17 -18 -18 -19 -19 -19 -19 -19 -20 -20 -20 -20 -19 -19 -19 -19 -19 -19 -19 -19 -19 -18 -18 -18 -19 -19 -19 -18 -17 -16 -16 -16 -16 -16 -16 -16
-15 -15 -15 -15 -15 -16 -17 -16 -17 -18 -19 -19 -19 -19 -19 -19 -19 -20 -20 -19 -19 -18 -18 -19 -19 -18 -18 -18 -18 -18 -18 -18 -18 -19 -18 -17 -16 -17 -16 -16 -16 -16 -16 -16
-15 -15 -15 -16 -16 -16 -16 -16 -17 -18 -19 -18 -19 -19 -19 -19 -18 -19 -19 -19 -18 -18 -18 -18 -18 -18 -18 -18 -18 -18 -18 -18 -18 -19 -18 -17 -17 -16 -16 -17 -16 -16 -16 -16
-16 -16 -16 -16 -16 -16 -18 -17 -17 -18 -18 -18 -18 -18 -18 -18 -18 -18 -18 -18 -18 -18 -18 -18 -18 -18 -18 -18 -18 -18 -18 -18 -18 -18 -17 -17 -17 -17 -17 -16 -16 -16 -16 -16
-15 -16 -16 -16 -16 -17 -17 -17 -18 -18 -18 -19 -19 -19 -18 -18 -18 -18 -17 -17 -17 -17 -17 -17 -17 -17 -17 -18 -17 -17 -17 -17 -18 -18 -17 -17 -16 -16 -16 -16 -16 -17 -17 -16
-17 -17 -17 -17 -17 -18 -18 -17 -18 -18 -19 -19 -19 -19 -18 -18 -18 -18 -17 -17 -16 -16 -16 -16 -16 -17 -17 -17 -17 -17 -17 -17 -17 -17 -17 -16 -16 -16 -16 -16 -16 -16 -17 -17
-17 -17 -17 -17 -17 -18 -18 -18 -18 -18 -19 -19 -19 -19 -18 -18 -18 -17 -17 -16 -16 -16 -16 -16 -16 -16 -17 -17 -17 -17 -17 -17 -17 -16 -16 -16 -16 -16 -16 -16 -17 -17 -18 -17
-18 -17 -17 -17 -18 -18 -18 -19 -19 -19 -19 -19 -19 -19 -19 -18 -18 -17 -16 -16 -16 -15 -15 -15 -16 -16 -16 -16 -16 -16 -16 -16 -16 -16 -17 -16 -16 -17 -17 -17 -17 -16 -17 -17
-18 -17 -17 -18 -18 -18 -19 -19 -20 -20 -19 -19 -20 -19 -19 -18 -17 -16 -16 -16 -15 -15 -15 -15 -16 -16 -16 -16 -16 -16 -16 -17 -17 -16 -17 -17 -17 -17 -17 -16 -17 -17 -17 -17
-18 -17 -18 -18 -19 -19 -19 -20 -20 -20 -19 -20 -20 -19 -19 -18 -17 -17 -16 -16 -15 -15 -15 -15 -16 -16 -16 -16 -16 -17 -17 -17 -17 -16 -17 -17 -17 -16 -16 -16 -16 -16 -17 -17

GFSCGP_500_temp_210.txt.gz
Temp
-9 -9 -9 -9 -9 -10 -10 -10 -10 -10 -10 -10 -10 -10 -10 -10 -11 -11 -11 -11 -12 -11 -11 -11 -11 -11 -11 -11 -11 -12 -12 -12 -11 -11 -11 -11 -12 -12 -11 -11 -11 -11 -11 -10
-10 -10 -10 -10 -10 -10 -10 -10 -9 -10 -10 -10 -10 -10 -10 -11 -11 -12 -11 -12 -12 -12 -12 -12 -12 -12 -12 -12 -12 -12 -12 -12 -12 -12 -12 -12 -12 -12 -12 -12 -11 -12 -11 -11
-10 -10 -10 -10 -10 -9 -10 -10 -9 -10 -10 -10 -10 -10 -11 -12 -13 -13 -13 -13 -13 -13 -12 -12 -13 -13 -13 -13 -13 -12 -12 -13 -12 -12 -12 -12 -12 -12 -12 -12 -12 -12 -11 -11
-10 -9 -10 -10 -10 -10 -10 -10 -10 -10 -10 -10 -11 -10 -13 -14 -14 -15 -15 -14 -14 -13 -12 -11 -12 -12 -13 -14 -14 -13 -12 -12 -13 -13 -13 -13 -13 -13 -13 -13 -13 -13 -12 -11
-10 -10 -10 -10 -10 -10 -10 -10 -10 -10 -10 -11 -13 -14 -13 -14 -14 -15 -15 -16 -15 -16 -16 -15 -15 -15 -14 -14 -14 -14 -13 -12 -14 -14 -14 -14 -14 -14 -14 -14 -14 -13 -12 -11
-10 -10 -10 -11 -10 -10 -10 -10 -10 -10 -11 -14 -13 -14 -14 -15 -15 -15 -15 -16 -16 -16 -17 -17 -17 -17 -16 -16 -17 -15 -15 -13 -14 -14 -14 -14 -14 -14 -14 -14 -14 -12 -11 -11
-10 -10 -9 -10 -11 -11 -11 -11 -11 -11 -11 -13 -13 -14 -15 -14 -14 -14 -15 -15 -16 -16 -17 -18 -18 -18 -17 -18 -18 -17 -17 -16 -15 -16 -15 -15 -15 -14 -14 -14 -14 -13 -12 -10
-11 -11 -10 -10 -11 -11 -11 -11 -12 -12 -12 -11 -13 -15 -15 -15 -15 -15 -15 -16 -16 -17 -18 -17 -18 -18 -18 -19 -18 -18 -18 -17 -15 -16 -17 -16 -16 -16 -15 -15 -14 -13 -13 -12
-11 -11 -11 -11 -12 -12 -12 -13 -13 -13 -13 -12 -13 -15 -16 -16 -16 -17 -17 -17 -17 -18 -17 -17 -19 -17 -18 -18 -19 -19 -18 -18 -18 -18 -18 -17 -17 -17 -17 -16 -15 -14 -14 -14
-11 -11 -12 -12 -12 -12 -12 -12 -13 -14 -13 -13 -13 -15 -17 -16 -17 -17 -17 -17 -17 -18 -19 -19 -19 -20 -19 -19 -19 -19 -19 -19 -19 -18 -18 -18 -17 -17 -17 -17 -16 -15 -15 -16
-11 -12 -12 -12 -12 -12 -13 -14 -14 -15 -15 -15 -14 -14 -17 -17 -19 -17 -17 -18 -18 -19 -20 -19 -20 -19 -19 -18 -19 -19 -19 -19 -19 -19 -18 -18 -18 -18 -17 -17 -16 -16 -16 -16
-11 -12 -12 -13 -13 -13 -13 -13 -13 -13 -14 -15 -15 -14 -17 -19 -19 -19 -18 -18 -17 -18 -19 -19 -19 -19 -19 -19 -19 -19 -19 -19 -19 -19 -18 -18 -17 -17 -17 -17 -17 -16 -16 -16
-12 -12 -12 -13 -13 -13 -13 -14 -15 -15 -15 -15 -16 -16 -19 -19 -18 -19 -19 -18 -19 -19 -18 -19 -19 -19 -19 -19 -19 -19 -19 -19 -19 -19 -19 -19 -18 -17 -17 -17 -17 -16 -15 -16
-13 -13 -13 -13 -14 -14 -14 -15 -15 -15 -15 -16 -16 -17 -19 -19 -18 -19 -19 -19 -19 -19 -19 -19 -19 -19 -19 -19 -19 -19 -19 -19 -19 -20 -20 -19 -19 -19 -20 -18 -16 -17 -16 -16
-14 -14 -13 -14 -14 -14 -14 -15 -15 -16 -16 -17 -17 -20 -20 -19 -18 -19 -19 -19 -19 -19 -19 -19 -19 -18 -18 -19 -19 -19 -19 -19 -19 -19 -19 -20 -19 -19 -19 -18 -16 -17 -16 -16
-14 -14 -14 -14 -14 -15 -15 -15 -16 -16 -16 -17 -19 -19 -20 -18 -18 -19 -19 -19 -19 -19 -19 -19 -18 -18 -18 -18 -18 -18 -19 -19 -19 -19 -19 -19 -20 -19 -18 -17 -17 -17 -16 -15
-14 -14 -14 -14 -15 -15 -15 -15 -15 -16 -17 -17 -17 -18 -17 -18 -19 -18 -19 -19 -18 -19 -18 -18 -18 -18 -18 -18 -18 -18 -18 -18 -18 -18 -19 -19 -19 -18 -16 -16 -17 -16 -16 -16
-14 -15 -15 -15 -15 -15 -16 -16 -15 -16 -17 -18 -17 -18 -18 -18 -18 -18 -19 -18 -18 -18 -18 -18 -18 -18 -18 -18 -18 -18 -18 -18 -18 -18 -18 -19 -18 -17 -16 -16 -17 -17 -16 -16
-15 -15 -15 -15 -15 -15 -16 -16 -16 -16 -17 -17 -18 -18 -18 -18 -18 -18 -18 -18 -18 -17 -17 -17 -17 -17 -17 -18 -18 -18 -18 -18 -18 -18 -19 -18 -17 -16 -16 -16 -16 -16 -16 -17
-14 -15 -15 -16 -16 -15 -18 -17 -17 -17 -17 -18 -18 -18 -18 -18 -18 -18 -18 -18 -17 -17 -16 -16 -16 -16 -17 -17 -18 -18 -18 -18 -18 -19 -18 -18 -17 -17 -17 -17 -17 -17 -17 -16
-16 -15 -16 -16 -17 -16 -17 -17 -17 -17 -18 -18 -18 -19 -18 -19 -19 -18 -18 -18 -18 -17 -16 -16 -16 -16 -16 -17 -17 -17 -17 -17 -18 -18 -18 -17 -17 -17 -17 -17 -16 -16 -16 -16
-17 -17 -17 -17 -17 -17 -18 -18 -18 -18 -17 -18 -19 -19 -19 -19 -19 -18 -18 -18 -17 -16 -16 -16 -16 -16 -16 -16 -17 -17 -17 -17 -17 -17 -17 -17 -16 -16 -16 -16 -17 -17 -18 -18
-17 -17 -17 -17 -18 -18 -18 -19 -19 -18 -18 -19 -19 -19 -19 -19 -19 -18 -18 -18 -17 -16 -15 -15 -16 -16 -16 -16 -16 -16 -17 -17 -17 -17 -17 -16 -16 -16 -17 -17 -18 -17 -18 -19
-17 -18 -17 -17 -18 -18 -18 -18 -19 -19 -19 -19 -19 -19 -19 -19 -19 -18 -18 -18 -17 -17 -16 -16 -15 -15 -16 -16 -16 -17 -17 -17 -17 -16 -16 -16 -17 -17 -17 -17 -18 -18 -19 -19
-17 -17 -17 -17 -18 -18 -18 -19 -19 -19 -19 -19 -20 -19 -19 -19 -18 -18 -18 -18 -17 -17 -16 -16 -15 -15 -16 -16 -16 -17 -17 -16 -16 -16 -17 -17 -17 -17 -17 -16 -17 -18 -18 -18
-18 -17 -17 -18 -18 -19 -19 -19 -19 -19 -19 -19 -19 -19 -19 -19 -18 -18 -17 -17 -17 -17 -16 -16 -16 -15 -16 -16 -16 -16 -16 -16 -16 -17 -17 -17 -17 -16 -16 -16 -17 -18 -18 -18

GFSCGP_500_temp_216.txt.gz
Temp
-9 -9 -9 -10 -10 -10 -9 -9 -9 -9 -10 -11 -11 -11 -10 -10 -9 -10 -11 -11 -10 -10 -10 -10 -10 -10 -10 -11 -11 -11 -11 -11 -12 -12 -13 -14 -13 -13 -13 -12 -12 -12 -12 -12
-9 -9 -9 -10 -10 -10 -9 -10 -10 -11 -11 -11 -10 -10 -10 -10 -10 -10 -10 -10 -10 -11 -11 -10 -11 -11 -11 -12 -12 -12 -12 -13 -12 -12 -13 -13 -13 -13 -13 -13 -13 -12 -12 -12
-10 -10 -10 -10 -10 -10 -10 -10 -10 -10 -10 -10 -10 -10 -10 -11 -10 -10 -11 -12 -12 -13 -12 -12 -12 -12 -13 -14 -14 -15 -15 -15 -15 -15 -15 -16 -15 -14 -13 -13 -13 -13 -13 -12
-10 -10 -10 -10 -10 -11 -11 -10 -10 -10 -10 -10 -10 -10 -10 -10 -11 -12 -14 -14 -14 -14 -14 -15 -14 -14 -15 -16 -15 -15 -16 -16 -16 -17 -16 -16 -15 -15 -15 -14 -13 -13 -13 -13
-11 -10 -11 -11 -11 -10 -10 -10 -11 -11 -11 -11 -11 -11 -11 -11 -12 -13 -14 -15 -15 -15 -15 -15 -15 -15 -16 -16 -16 -17 -17 -16 -17 -17 -17 -17 -17 -16 -16 -15 -15 -14 -13 -14
-11 -11 -10 -10 -10 -10 -10 -10 -11 -11 -11 -11 -11 -11 -11 -12 -13 -13 -14 -14 -14 -14 -15 -15 -16 -16 -16 -17 -17 -17 -17 -17 -17 -17 -17 -18 -17 -16 -16 -16 -16 -15 -15 -15
-11 -11 -10 -10 -11 -11 -11 -10 -11 -11 -11 -11 -12 -12 -12 -12 -12 -13 -14 -15 -15 -16 -16 -17 -17 -18 -18 -18 -17 -17 -18 -17 -18 -18 -18 -19 -18 -18 -16 -17 -17 -16 -15 -15
-11 -11 -11 -11 -11 -11 -11 -11 -11 -11 -11 -11 -12 -12 -12 -12 -12 -13 -13 -13 -14 -15 -17 -17 -18 -18 -18 -18 -17 -17 -18 -18 -18 -18 -19 -20 -20 -18 -17 -17 -17 -17 -17 -17
-11 -11 -11 -10 -11 -11 -11 -12 -12 -12 -12 -12 -12 -12 -13 -13 -14 -14 -13 -14 -14 -15 -16 -18 -18 -18 -17 -17 -17 -17 -18 -18 -18 -19 -19 -19 -19 -19 -17 -18 -18 -18 -17 -16
-11 -11 -12 -12 -12 -12 -12 -12 -13 -13 -12 -12 -13 -13 -14 -15 -15 -14 -14 -14 -15 -15 -16 -17 -18 -17 -17 -17 -17 -17 -18 -18 -18 -18 -19 -18 -19 -19 -19 -18 -19 -18 -18 -18
-12 -12 -12 -12 -12 -12 -13 -13 -13 -13 -13 -13 -13 -13 -15 -14 -14 -13 -14 -14 -15 -16 -17 -18 -17 -18 -18 -18 -18 -17 -17 -18 -18 -18 -18 -19 -19 -19 -19 -19 -19 -18 -18 -18
-12 -12 -12 -12 -12 -12 -13 -13 -14 -14 -14 -14 -14 -14 -14 -14 -14 -14 -15 -15 -16 -17 -18 -18 -18 -18 -18 -18 -18 -17 -18 -18 -18 -18 -19 -19 -19 -19 -19 -19 -19 -19 -19 -19
-11 -12 -12 -13 -13 -13 -13 -14 -14 -14 -14 -13 -15 -15 -15 -15 -15 -15 -16 -16 -17 -18 -18 -19 -19 -19 -18 -18 -18 -18 -17 -17 -18 -18 -18 -19 -18 -19 -19 -19 -19 -19 -19 -19
-13 -12 -13 -13 -13 -14 -14 -14 -15 -14 -14 -15 -15 -15 -15 -16 -16 -16 -17 -17 -17 -18 -18 -18 -19 -18 -18 -18 -18 -18 -18 -17 -18 -18 -18 -19 -18 -19 -19 -19 -19 -19 -19 -19
-13 -13 -13 -14 -14 -14 -14 -14 -14 -15 -15 -15 -15 -16 -16 -17 -17 -17 -17 -17 -18 -18 -18 -19 -19 -18 -19 -18 -18 -17 -17 -17 -18 -18 -18 -18 -18 -19 -19 -19 -19 -20 -20 -19
-13 -13 -13 -14 -14 -14 -14 -14 -15 -15 -15 -16 -16 -17 -17 -17 -18 -18 -18 -18 -19 -19 -19 -19 -19 -19 -19 -18 -18 -17 -17 -17 -18 -18 -18 -18 -19 -19 -19 -20 -20 -20 -20 -20
-13 -13 -13 -14 -14 -14 -15 -15 -15 -15 -16 -17 -17 -17 -18 -18 -18 -18 -18 -19 -19 -19 -19 -19 -19 -19 -18 -18 -18 -17 -17 -17 -18 -18 -18 -18 -19 -20 -20 -20 -19 -19 -19 -19
-14 -14 -14 -14 -14 -15 -15 -16 -16 -16 -16 -16 -17 -17 -17 -18 -18 -19 -19 -19 -19 -19 -19 -19 -19 -19 -18 -18 -17 -17 -17 -17 -18 -18 -19 -19 -19 -19 -19 -19 -18 -18 -18 -18
-14 -14 -15 -15 -15 -15 -15 -15 -16 -16 -16 -17 -18 -18 -18 -18 -18 -19 -19 -19 -19 -19 -19 -19 -18 -18 -18 -17 -17 -17 -17 -18 -18 -18 -18 -18 -18 -18 -18 -18 -18 -18 -18 -18
-15 -15 -15 -15 -15 -15 -15 -15 -16 -17 -17 -17 -17 -17 -18 -18 -18 -19 -19 -19 -19 -19 -18 -18 -18 -19 -18 -17 -17 -17 -17 -18 -18 -18 -18 -18 -18 -18 -18 -18 -18 -18 -18 -19
-15 -15 -15 -16 -16 -15 -16 -16 -17 -17 -17 -17 -17 -18 -18 -19 -19 -19 -19 -19 -19 -18 -18 -18 -19 -18 -17 -17 -17 -17 -17 -18 -17 -17 -18 -18 -18 -19 -18 -18 -19 -19 -19 -19
-15 -15 -15 -16 -16 -16 -16 -17 -17 -17 -17 -17 -18 -18 -18 -18 -19 -19 -19 -19 -19 -18 -18 -19 -18 -18 -17 -17 -17 -17 -17 -17 -17 -18 -18 -18 -18 -18 -18 -19 -19 -19 -19 -19
-16 -16 -17 -17 -17 -17 -18 -18 -18 -18 -18 -18 -19 -19 -19 -19 -19 -19 -18 -19 -18 -18 -18 -18 -18 -17 -17 -17 -17 -17 -17 -17 -18 -18 -18 -18 -19 -18 -19 -19 -19 -19 -19 -19
-17 -18 -18 -18 -18 -18 -18 -18 -18 -18 -19 -19 -19 -19 -19 -19 -19 -19 -18 -18 -17 -17 -18 -18 -17 -17 -17 -17 -17 -17 -17 -18 -18 -18 -18 -18 -18 -18 -19 -19 -18 -18 -18 -18
-17 -17 -17 -18 -18 -18 -18 -18 -18 -19 -19 -19 -19 -19 -20 -19 -19 -18 -17 -17 -17 -17 -17 -17 -17 -17 -17 -17 -17 -18 -18 -18 -18 -18 -18 -18 -18 -18 -18 -18 -18 -19 -20 -20
-18 -18 -18 -18 -18 -18 -18 -19 -19 -19 -19 -19 -19 -19 -19 -20 -19 -18 -16 -16 -16 -17 -17 -17 -17 -17 -17 -17 -18 -18 -18 -18 -18 -18 -18 -18 -18 -18 -18 -19 -20 -21 -22 -22

GFSCGP_500_temp_222.txt.gz
Temp
-10 -10 -10 -10 -10 -10 -10 -10 -10 -10 -10 -10 -10 -10 -10 -10 -10 -10 -10 -10 -10 -10 -11 -11 -12 -12 -12 -12 -12 -12 -13 -12 -12 -12 -12 -12 -13 -13 -13 -14 -14 -14 -14 -13
-10 -10 -10 -10 -10 -10 -10 -10 -11 -11 -10 -10 -10 -10 -10 -10 -10 -10 -10 -11 -11 -11 -12 -12 -12 -12 -12 -12 -13 -13 -13 -12 -12 -12 -13 -13 -13 -13 -13 -14 -14 -14 -14 -14
-10 -10 -11 -11 -11 -11 -11 -11 -11 -11 -11 -10 -10 -10 -10 -11 -11 -11 -11 -11 -12 -12 -12 -13 -13 -13 -13 -14 -14 -13 -13 -13 -12 -13 -13 -14 -14 -14 -14 -14 -14 -14 -15 -15
-11 -11 -11 -11 -11 -11 -11 -11 -11 -11 -11 -11 -11 -11 -11 -11 -11 -11 -11 -12 -12 -12 -13 -13 -13 -13 -14 -14 -14 -14 -13 -12 -13 -14 -14 -14 -14 -14 -14 -14 -14 -14 -15 -15
-11 -11 -11 -11 -12 -12 -11 -12 -11 -11 -11 -11 -11 -11 -11 -11 -11 -11 -12 -12 -13 -13 -13 -13 -14 -14 -14 -14 -14 -14 -13 -13 -14 -14 -15 -15 -15 -16 -16 -15 -15 -15 -16 -16
-12 -12 -12 -12 -12 -12 -12 -12 -11 -11 -11 -11 -11 -11 -11 -11 -12 -12 -12 -13 -13 -13 -14 -14 -14 -15 -15 -15 -15 -14 -14 -14 -15 -15 -15 -16 -16 -17 -16 -16 -16 -16 -16 -17
-12 -12 -12 -12 -12 -12 -12 -12 -11 -11 -11 -11 -11 -11 -11 -12 -12 -13 -13 -13 -14 -14 -14 -15 -15 -16 -16 -15 -15 -15 -15 -15 -16 -16 -17 -17 -17 -17 -17 -16 -16 -16 -16 -17
-12 -12 -13 -12 -12 -12 -12 -12 -12 -11 -11 -11 -11 -11 -12 -12 -13 -13 -13 -14 -14 -15 -15 -15 -15 -15 -15 -15 -15 -16 -16 -16 -17 -17 -17 -18 -18 -17 -17 -17 -17 -16 -17 -17
-13 -13 -13 -13 -13 -12 -12 -12 -12 -12 -12 -11 -11 -11 -12 -13 -13 -14 -14 -14 -15 -15 -15 -15 -15 -15 -15 -16 -16 -16 -16 -17 -17 -17 -17 -17 -17 -17 -17 -17 -16 -16 -17 -17
-13 -13 -13 -13 -13 -12 -12 -12 -12 -12 -12 -11 -11 -12 -13 -13 -14 -14 -14 -15 -15 -15 -15 -15 -15 -15 -16 -16 -16 -17 -17 -17 -17 -17 -17 -17 -17 -17 -17 -16 -16 -17 -17 -18
-13 -13 -13 -13 -13 -13 -12 -12 -12 -12 -12 -12 -12 -13 -13 -14 -14 -15 -15 -15 -15 -15 -15 -16 -16 -16 -16 -17 -17 -17 -17 -17 -17 -17 -17 -17 -17 -17 -17 -17 -17 -17 -18 -18
-13 -13 -13 -13 -13 -13 -12 -12 -12 -13 -13 -13 -14 -13 -14 -14 -14 -15 -15 -15 -15 -16 -16 -16 -16 -17 -17 -17 -18 -18 -18 -18 -18 -18 -17 -17 -17 -17 -17 -18 -18 -19 -19 -19
-13 -13 -13 -13 -12 -12 -12 -12 -13 -13 -13 -14 -14 -14 -14 -14 -15 -15 -15 -16 -16 -16 -16 -16 -17 -17 -18 -18 -18 -18 -18 -18 -18 -18 -17 -17 -18 -17 -18 -18 -19 -19 -19 -19
-13 -13 -13 -13 -13 -13 -13 -13 -13 -13 -13 -14 -15 -14 -15 -15 -15 -16 -16 -16 -16 -16 -17 -17 -18 -18 -18 -18 -19 -19 -18 -18 -18 -18 -17 -18 -18 -18 -18 -18 -19 -19 -20 -20
-13 -13 -13 -13 -13 -13 -14 -14 -14 -14 -15 -14 -15 -15 -15 -16 -16 -16 -16 -16 -17 -17 -17 -17 -18 -18 -18 -18 -19 -18 -18 -18 -18 -17 -18 -18 -18 -18 -18 -18 -18 -19 -19 -20
-13 -13 -13 -13 -14 -14 -15 -15 -15 -15 -15 -15 -15 -15 -15 -16 -16 -17 -17 -17 -17 -17 -18 -18 -18 -18 -18 -18 -18 -18 -18 -18 -18 -18 -17 -18 -17 -17 -17 -17 -18 -18 -18 -19
-13 -13 -14 -14 -14 -14 -14 -14 -14 -15 -15 -15 -15 -16 -16 -16 -17 -17 -17 -17 -18 -18 -18 -19 -19 -19 -19 -19 -18 -19 -18 -18 -18 -17 -18 -18 -18 -18 -18 -18 -18 -18 -19 -19
-14 -14 -14 -14 -14 -14 -14 -15 -15 -15 -16 -16 -16 -16 -17 -17 -17 -18 -18 -18 -18 -19 -19 -19 -19 -19 -19 -19 -18 -18 -18 -18 -17 -18 -18 -18 -18 -18 -18 -18 -18 -19 -19 -19
-14 -14 -14 -15 -15 -15 -15 -15 -15 -15 -16 -16 -16 -17 -17 -17 -17 -18 -18 -19 -19 -19 -19 -19 -19 -19 -18 -18 -18 -18 -17 -17 -18 -18 -18 -18 -18 -18 -18 -19 -19 -19 -19 -19
-15 -15 -15 -15 -15 -15 -15 -15 -15 -15 -16 -16 -17 -17 -17 -17 -17 -18 -18 -19 -19 -19 -19 -19 -19 -18 -18 -18 -18 -18 -17 -18 -18 -18 -18 -18 -18 -19 -19 -19 -19 -20 -20 -20
-15 -15 -15 -15 -15 -15 -15 -15 -15 -16 -16 -17 -17 -17 -18 -18 -18 -18 -19 -19 -19 -19 -19 -19 -18 -17 -18 -18 -18 -18 -18 -18 -18 -18 -18 -19 -19 -19 -19 -19 -19 -20 -20 -20
-15 -15 -16 -15 -15 -15 -15 -16 -16 -16 -17 -17 -18 -18 -18 -18 -19 -19 -19 -19 -19 -19 -19 -18 -17 -18 -18 -18 -18 -18 -18 -18 -19 -19 -18 -19 -19 -19 -19 -19 -20 -20 -20 -20
-15 -16 -15 -15 -15 -15 -16 -16 -16 -17 -18 -18 -18 -18 -18 -19 -19 -19 -19 -18 -19 -18 -17 -17 -17 -18 -18 -18 -18 -18 -19 -19 -19 -19 -19 -19 -19 -20 -20 -20 -20 -21 -21 -21
-16 -15 -15 -15 -15 -16 -17 -17 -18 -18 -18 -18 -19 -19 -19 -19 -19 -19 -18 -19 -18 -17 -17 -17 -17 -18 -18 -18 -18 -19 -19 -19 -19 -19 -19 -20 -20 -20 -20 -20 -21 -22 -22 -22
-15 -15 -15 -15 -16 -16 -17 -18 -19 -18 -18 -19 -19 -20 -20 -20 -19 -19 -19 -19 -18 -18 -17 -17 -18 -18 -18 -18 -19 -19 -19 -19 -20 -19 -20 -20 -20 -20 -21 -22 -22 -23 -24 -24
-16 -15 -15 -16 -16 -18 -18 -19 -19 -19 -20 -20 -20 -20 -20 -20 -19 -19 -19 -18 -18 -18 -17 -17 -18 -18 -18 -19 -19 -19 -20 -20 -20 -20 -20 -20 -21 -22 -22 -23 -23 -23 -24 -24